星链-6040 (STARLINK-6040 )

导读 | 星芒AI

STARLINK-6040 是 SpaceX 星链(Starlink)卫星互联网项目中的第 6040 颗卫星。该卫星属于星链计划的第二批部署批次,旨在通过低轨卫星提供全球高速互联网服务。它采用先进的通信技术,支持宽带接入,提升偏远地区的网络覆盖。卫星由 SpaceX 自动发射并部署在近地轨道,为全球用户提供低延迟、高带宽的互联网连接,助力实现全球网络普及的目标。

基本信息
目录编号:
56809
目录名称:
STARLINK-6040
国际标识:
2023-078AU
轨道中心:
EARTH
卫星名称:
星链-6040
卫星全名:
星链-6040 (STARLINK-6040 )
卫星状态:
在轨 (已飞行888 天)
发射日期:
2023-05-31 UTC
国别 :
美国 (US)
星等 :
--
轨道信息
数据来源 国际轨道数据
星历时间: 2025-11-04T01:04:20+0800
14小时前
查看轨道信息
半长轴: 6950.188km
偏心率: 0.0003013
轨道倾角: 69.998°
近地点辐角 271.031°
升交点赤经 301.940°
平近点角 89.051°
近地点: 569.958km
远地点: 574.148km
周期: 96.107分钟
每日圈数: 14.983316
详细信息
固有亮度:
5
最大亮度:
2.5
卫星平台:
Starlink v1.5
覆盖范围:
全球
运营商:
太空探索技术公司
运营商所在国:
美国
制造商(研发单位):
太空探索技术公司
制造商所在国:
美国
使用方式:
暂无
卫星简介
星链(Starlink)计划是由太空探索技术公司(SpaceX)提出的一个巨型低轨卫星互联网星座项目,计划在2019年至2024年间在太空搭建由约1.2万颗卫星组成的“星链”网络,其中1584颗将部署在地球上空550千米处的近地轨道,并从2020年开始工作。该卫星仍在工作。
2D轨道图
3D轨道图
轨道高度分析图
轨道倾角分析图
轨道综合分析图
查看轨道综合分析图